This demonstration page uses our WeatherBlox Daily Observations layout. Learn more.

Left ArrowRight Arrow

34.02893, -84.19858

Hourly Observations for April 5, 2019

Temp ( °F °C ) Dew Point ( °F °C ) Humidity (%) Winds ( mph kmh ) Pressure ( in mb ) Visibility ( mi km ) Precip ( " mm )
12:53 am 00:53 Cloudy with Light Rain 53 11.7 51 10.6 93 93 VRB 3 6 30.14 1021 5 8 0.03 0.76
1:31 am 01:31 Cloudy with Light Rain 53 11.7 52 11.1 96 96 VRB 7 11 30.13 1020 3 5 0.04 1.02
1:53 am 01:53 Cloudy with Light Rain 53 11.7 52 11.1 96 96 SE 9 15 30.08 1019 5 8 0.06 1.52
2:06 am 02:06 Cloudy with Light Rain 53 11.7 52 11.1 96 96 SE 8 13 30.07 1018 6 10 0.00 0.03
2:53 am 02:53 Cloudy 54 12.2 53 11.7 97 97 SE 5 7 30.07 1018 9 14 0.00 0.03
3:53 am 03:53 Cloudy with Light Rain 55 12.8 54 12.2 96 96 S 8 13 30.06 1018 7 11 0.01 0.25
5:43 am 05:43 Cloudy with Light Rain 56 13.3 56 13.3 100 100 S 7 11 30.06 1018 3 4 0.06 1.52
5:53 am 05:53 Cloudy with Light Rain 56 13.3 56 13.3 100 100 SSE 6 9 30.05 1018 5 8 0.06 1.52
6:00 am 06:00 Cloudy 56 13.3 56 13.3 100 100 SSE 5 7 30.06 1018 7 11 0.00 0.03
6:13 am 06:13 Cloudy with Mist and Fog 56 13.3 56 13.3 100 100 Calm 30.06 1018 6 10 0.00 0.03
6:24 am 06:24 Cloudy with Light Rain 56 13.3 56 13.3 100 100 S 3 6 30.06 1018 7 11 0.00 0.03
6:53 am 06:53 Cloudy with Light Rain 56 13.3 56 13.3 100 100 SSE 3 6 30.04 1017 8 13 0.01 0.25
7:53 am 07:53 Cloudy 57 13.9 56 13.3 96 96 S 6 9 30.05 1018 7 11 0.02 0.51
8:06 am 08:06 Cloudy 57 13.9 56 13.3 96 96 S 6 9 30.07 1018 7 11 0.00 0.00
8:53 am 08:53 Cloudy 58 14.4 57 13.9 97 97 S 8 13 30.06 1018 8 13 0.00 0.03
9:53 am 09:53 Cloudy 59 15 57 13.9 93 93 SSW 7 11 30.06 1018 8 13 0.00 0.00
10:53 am 10:53 Cloudy 61 16.1 58 14.4 90 90 WSW 5 7 30.07 1018 10 16 0.00 0.00
11:53 am 11:53 Cloudy 62 16.7 59 15 90 90 SW 5 7 30.08 1019 10 16 0.00 0.00
12:53 pm 12:53 Cloudy 66 18.9 60 15.6 81 81 SW 7 11 30.07 1018 10 16 0.00 0.00
12:57 pm 12:57 Mostly Cloudy 66 18.9 60 15.6 81 81 SSW 6 9 30.07 1018 10 16 0.00 0.00
1:21 pm 13:21 Mostly Cloudy 66 18.9 58 14.4 75 75 VRB 5 7 30.06 1018 10 16 0.00 0.00
1:53 pm 13:53 Mostly Cloudy 70 21.1 59 15 68 68 NNW 6 9 30.05 1018 10 16 0.00 0.00
2:15 pm 14:15 Partly Cloudy 69 20.6 59 15 70 70 W 6 9 30.03 1017 10 16 0.00 0.00
2:53 pm 14:53 Cloudy 71 21.7 57 13.9 61 61 W 6 9 30.04 1017 10 16 0.00 0.00
3:53 pm 15:53 Cloudy 71 21.7 57 13.9 61 61 W 7 11 30.03 1017 10 16 0.00 0.00
4:53 pm 16:53 Partly Cloudy 74 23.3 55 12.8 52 52 WNW 9 15 30.01 1016 10 16 0.00 0.00
5:53 pm 17:53 Mostly Sunny 73 22.8 55 12.8 53 53 VRB 6 9 30.01 1016 10 16 0.00 0.00
6:53 pm 18:53 Mostly Sunny 72 22.2 54 12.2 53 53 WNW 9 15 30.03 1017 10 16 0.00 0.00
7:53 pm 19:53 Mostly Cloudy 69 20.6 57 13.9 66 66 Calm 30.04 1017 10 16 0.00 0.00
8:53 pm 20:53 Clear 64 17.8 57 13.9 78 78 Calm 30.06 1018 10 16 0.00 0.00
9:53 pm 21:53 Clear 62 16.7 58 14.4 86 86 Calm 30.08 1019 10 16 0.00 0.00
10:53 pm 22:53 Clear 61 16.1 58 14.4 90 90 Calm 30.09 1019 10 16 0.00 0.00
11:53 pm 23:53 Clear 59 15 57 13.9 93 93 Calm 30.10 1019 9 14 0.00 0.00

Powered by AerisWeather